Wind_Speed
20 23 21 19 15 10 10 12 13 12 12 11 7 7 8 7 8 8 9 10 9 7 8 9 9 13 19 20 18 17 16 16 16 16 18 17 15 14 14 16 18 19 20 21 25 28 30 31 33 34 35 37 37 35 35 36 36 36 36 35 34 33 32
21 21 22 22 19 13 9 12 14 11 11 11 8 6 6 6 8 7 8 12 11 8 7 9 13 14 15 19 21 18 17 18 17 16 17 18 18 17 17 18 18 19 20 21 24 29 32 34 35 35 36 36 36 35 36 37 37 36 37 36 35 33 33
19 19 20 19 19 20 13 11 13 12 10 10 8 7 7 8 8 7 9 11 9 9 8 8 14 16 15 16 18 19 20 20 18 18 19 21 20 17 16 17 16 17 19 21 24 29 32 34 35 35 35 34 34 34 35 36 38 38 38 37 35 34 34
19 15 15 14 16 20 17 12 12 11 9 9 9 8 7 7 7 6 9 10 8 9 9 9 11 14 15 15 14 15 17 18 17 17 17 19 18 15 15 14 14 17 20 22 27 30 31 32 33 33 34 35 35 34 34 35 36 37 36 35 35 35 36
18 13 13 16 16 17 16 13 12 12 10 8 9 9 8 7 7 6 6 7 7 6 8 9 9 12 14 15 14 13 13 15 16 15 14 15 15 13 13 14 16 20 20 22 26 29 29 30 31 32 34 35 35 35 34 35 35 36 36 36 35 36 36
15 14 17 20 20 19 16 13 12 12 12 10 10 10 10 9 7 6 5 5 3 5 3 5 7 10 12 13 13 13 13 14 14 15 15 15 15 14 14 15 16 16 17 19 22 25 26 28 30 32 33 34 35 35 35 35 35 36 37 37 37 36 35
14 17 20 20 22 22 19 16 14 12 12 12 10 8 9 9 9 7 6 5 3 8 5 4 4 5 9 12 12 11 12 12 12 14 15 16 17 17 17 18 15 13 14 15 18 22 24 26 28 31 31 32 35 36 35 34 35 37 37 37 37 36 35
13 16 19 19 21 21 18 16 15 14 14 13 10 8 6 8 10 9 6 6 4 8 7 5 4 2 6 10 11 10 11 10 10 12 13 13 15 14 14 14 12 13 14 14 15 17 19 22 25 29 30 31 32 34 34 35 36 37 36 36 35 34 34
12 13 15 16 18 17 13 14 17 18 18 17 13 9 6 7 10 12 9 7 4 8 7 4 5 7 8 10 12 11 10 9 10 10 7 7 8 9 9 9 9 12 13 13 13 13 15 20 25 27 28 29 30 32 34 34 34 35 35 34 34 34 34
12 11 11 11 15 15 11 15 22 22 22 21 15 9 7 7 9 10 9 6 5 9 8 7 7 8 7 10 12 11 9 8 7 7 9 8 6 5 8 9 9 10 11 11 13 12 13 20 23 24 26 28 28 30 32 33 32 33 33 33 33 33 33
6 2 3 4 10 15 16 19 23 24 24 22 16 11 9 8 7 8 8 6 9 11 10 8 9 9 7 8 12 12 10 10 10 9 7 6 6 5 6 8 8 8 9 10 13 12 14 19 22 23 25 27 27 28 30 31 30 31 33 33 33 33 33
9 4 9 9 6 14 18 22 23 23 24 25 20 14 12 10 8 8 9 7 5 11 12 9 9 10 8 7 10 12 11 9 9 8 5 5 8 9 8 8 8 9 8 9 11 12 14 18 21 22 24 25 27 27 28 30 30 30 31 32 33 33 32
12 6 7 10 7 9 12 18 24 25 24 26 24 19 15 13 9 7 11 13 9 7 12 12 10 10 8 7 6 7 7 5 5 5 3 1 6 11 11 8 8 9 9 9 10 12 13 16 19 21 21 23 24 25 26 28 30 30 30 31 32 32 32
14 10 8 9 7 7 8 12 18 23 24 25 24 21 19 17 13 8 10 15 14 9 10 12 10 7 4 2 2 3 3 3 4 4 1 4 4 5 9 9 9 8 9 10 10 11 12 13 16 19 20 21 23 24 25 27 28 29 29 30 32 32 32
13 11 9 8 7 6 7 7 10 17 23 24 22 21 20 17 15 12 8 9 12 9 6 5 5 4 2 3 3 3 3 4 4 4 4 4 5 3 2 5 7 9 9 9 10 11 12 13 16 18 19 21 22 24 25 27 28 28 28 29 31 32 32
10 12 11 10 8 7 9 9 10 12 15 17 17 16 15 13 13 12 9 7 7 5 3 2 1 1 4 5 6 6 7 6 6 6 6 5 5 4 3 2 2 7 10 11 11 12 12 14 17 18 19 20 22 23 25 26 26 27 28 29 30 31 31
9 14 14 11 9 8 10 11 12 10 9 11 12 11 11 11 10 8 8 7 6 5 4 6 6 7 7 6 6 6 5 5 6 7 7 6 5 5 3 4 5 5 6 7 9 9 8 11 14 17 20 21 22 23 23 23 25 27 29 30 29 30 30
9 11 10 10 12 11 9 8 10 12 12 12 12 11 12 12 10 8 7 6 5 6 6 8 8 7 5 3 4 4 3 4 6 7 8 7 6 6 5 5 6 5 3 1 3 4 6 8 10 12 16 19 20 21 21 23 25 27 28 28 28 29 30
8 8 8 10 13 11 8 8 10 13 15 15 15 15 14 14 13 13 12 9 7 6 5 4 4 3 3 3 5 6 6 6 7 8 9 8 7 7 5 4 4 4 4 3 3 5 6 7 8 8 11 15 18 19 21 24 26 25 25 26 26 27 29
6 6 8 9 6 4 6 8 6 7 11 16 17 16 16 15 14 13 12 12 10 7 6 4 1 2 4 5 6 7 9 11 11 12 12 11 10 8 5 4 5 5 5 5 6 6 7 7 8 9 11 12 15 19 21 23 25 25 25 25 25 26 28
6 6 8 7 3 2 5 8 6 5 8 11 11 12 13 14 13 9 7 7 6 3 4 4 3 3 5 5 7 10 13 14 12 11 12 11 8 6 6 7 6 6 6 6 6 6 7 9 10 10 11 12 14 17 19 21 23 25 25 26 27 27 26
7 7 9 9 8 7 7 8 8 8 9 8 6 7 8 9 10 8 5 4 5 5 7 7 3 2 4 7 7 7 7 8 8 9 10 9 7 8 9 8 8 8 7 7 7 8 9 11 11 11 11 12 13 15 18 20 22 24 26 27 28 27 26
9 10 10 10 10 7 6 9 12 9 6 5 5 6 7 6 4 4 5 7 7 7 7 5 2 3 7 8 4 4 8 10 10 10 10 11 10 9 9 9 9 9 10 9 10 11 11 11 11 11 11 12 12 14 17 19 20 23 26 26 27 27 26
10 10 9 9 7 2 1 3 8 7 5 5 7 9 6 4 4 3 2 5 3 2 3 3 4 6 7 6 3 8 11 10 9 9 9 10 10 10 10 10 11 11 10 10 9 9 8 7 7 8 8 11 12 13 15 18 20 22 23 23 23 24 25
11 11 10 9 6 2 2 3 6 5 4 6 7 6 3 5 5 4 3 4 3 4 4 3 3 4 6 8 10 12 12 11 9 9 9 9 9 10 9 10 10 11 10 7 7 8 9 8 7 7 7 8 11 12 13 16 18 18 19 20 20 21 23
11 11 9 10 7 1 4 2 5 4 4 5 3 2 6 6 5 4 5 5 6 6 6 5 5 6 9 12 13 13 13 12 11 10 9 9 9 10 9 9 8 9 8 7 7 8 8 8 7 6 7 7 8 9 11 13 14 13 14 17 19 20 21
9 10 11 11 7 3 9 4 2 3 1 0 3 7 8 7 7 7 7 6 7 7 7 7 7 9 11 12 12 12 12 11 11 10 9 8 8 8 8 7 7 8 8 7 7 8 8 9 9 7 6 8 7 7 9 9 10 11 11 14 17 19 20
7 10 9 5 1 5 9 5 2 5 6 5 6 7 7 6 8 8 7 7 9 9 8 8 9 10 11 10 10 10 10 10 10 10 9 7 7 7 7 7 8 8 6 5 6 6 7 8 9 10 5 5 7 6 5 4 4 8 11 11 14 16 17
5 7 5 4 5 5 5 4 4 7 8 7 8 8 7 7 7 8 8 9 11 12 11 9 8 9 10 11 10 10 9 9 9 9 9 9 8 8 7 6 6 6 5 4 5 5 7 7 8 10 7 2 4 3 4 3 0 3 7 9 10 12 13
7 9 9 8 6 4 4 6 7 9 10 9 9 9 8 8 9 9 10 11 13 13 13 11 9 9 10 12 11 10 9 9 9 8 9 8 7 8 7 5 6 6 4 4 4 4 5 6 6 8 8 4 3 4 3 1 2 2 4 6 8 9 10
6 7 8 8 6 4 5 8 9 9 9 9 9 9 9 9 11 11 11 13 15 14 13 12 11 10 10 10 10 9 8 8 8 8 8 7 6 7 6 5 5 6 3 3 4 4 4 5 6 6 6 4 2 1 0 2 3 2 4 6 7 8 8
9 10 11 11 10 10 10 9 9 9 8 8 9 9 9 11 12 12 11 12 13 14 13 13 13 12 9 8 7 8 7 6 6 7 8 7 6 5 4 3 3 4 3 2 3 4 5 6 6 6 6 5 4 2 1 1 1 3 4 5 6 7 7
10 12 14 13 13 13 12 12 12 9 7 8 9 10 11 12 12 13 13 12 11 13 15 14 13 12 10 8 7 7 6 5 5 7 7 6 5 3 2 2 2 2 2 2 4 6 6 6 6 6 6 6 5 5 4 3 2 3 4 4 5 6 6
9 10 11 11 11 10 9 10 11 8 7 9 10 11 11 12 12 14 15 14 13 14 15 15 13 11 9 8 6 6 5 4 4 6 7 5 4 2 0 1 1 2 2 2 4 5 4 4 5 6 6 6 5 5 5 5 4 4 4 4 5 6 5
10 11 11 10 9 9 9 11 13 10 8 10 12 12 12 13 12 13 14 14 14 15 15 16 14 12 9 7 6 5 4 3 2 3 5 3 1 1 2 2 3 4 5 5 5 5 4 4 5 6 7 7 7 6 6 6 5 5 4 4 5 5 5
13 13 13 11 10 11 12 14 15 13 10 11 13 13 13 13 12 12 13 12 13 14 15 15 16 14 11 8 7 5 3 3 3 2 1 2 3 3 4 5 6 6 6 7 7 7 6 6 7 8 8 7 7 7 7 6 7 6 5 4 5 5 6
13 13 13 12 12 13 13 14 15 14 12 12 13 14 14 13 12 12 13 12 12 13 14 15 17 16 13 10 8 7 5 3 3 4 5 3 2 2 4 5 7 7 8 8 9 9 9 9 9 9 9 8 8 8 8 8 8 7 7 8 8 8 7
Wind_Direction
197 194 202 207 203 193 184 196 211 210 212 228 240 232 230 230 232 220 202 209 218 224 226 215 224 228 211 210 218 212 201 200 199 188 178 191 210 196 190 204 200 190 187 187 189 190 189 189 191 191 189 186 186 185 184 184 184 184 185 187 189 191 192
195 190 198 207 210 207 190 194 205 204 211 228 243 235 221 218 228 225 211 210 205 206 217 198 202 221 216 205 208 210 205 202 203 196 181 188 203 196 190 201 200 188 187 188 189 191 191 190 191 191 190 188 186 186 185 185 185 186 186 188 190 190 191
186 184 197 206 208 215 218 203 195 198 208 210 216 229 221 212 218 220 219 221 211 202 210 204 197 205 213 204 201 208 209 205 205 202 191 189 195 195 191 197 198 190 187 189 189 192 193 191 191 191 189 189 189 189 188 187 187 188 188 189 190 189 191
178 179 198 203 196 207 222 220 200 200 215 208 202 215 225 222 220 215 216 220 222 216 212 206 192 191 203 202 196 209 211 199 198 202 194 186 189 195 194 193 199 197 191 190 191 193 194 192 190 190 189 190 192 192 191 191 190 190 190 190 189 190 192
182 187 199 205 193 192 208 216 203 195 205 210 207 210 216 226 230 223 221 219 214 207 202 202 187 178 195 202 194 202 215 201 190 194 192 181 181 195 202 197 199 200 194 191 192 192 192 192 190 190 191 191 193 193 193 194 193 191 192 191 191 192 194
198 200 195 205 203 194 197 207 205 197 196 201 208 207 203 215 233 232 237 241 182 115 134 201 197 182 185 199 196 189 204 207 189 185 190 181 177 189 203 205 200 199 197 191 189 189 191 191 191 192 194 192 193 195 195 195 195 194 194 193 192 193 193
207 205 194 203 209 202 199 206 208 202 198 201 207 205 194 201 218 223 237 246 127 97 113 152 161 189 188 190 197 189 192 204 193 183 186 183 181 187 196 202 197 194 201 195 184 185 190 193 193 193 195 195 195 196 195 195 197 197 197 196 194 192 191
201 203 193 198 209 208 203 206 209 208 204 203 209 211 193 193 204 203 212 228 165 115 117 114 96 221 203 173 184 197 191 191 189 185 185 181 178 180 192 204 193 180 189 191 183 183 188 194 195 194 197 198 197 197 196 197 199 199 198 198 195 192 192
192 194 191 191 204 211 209 203 204 211 210 203 207 215 206 202 201 195 198 217 184 121 124 166 176 191 187 159 166 186 181 174 181 176 152 129 135 152 183 209 198 180 181 181 180 182 185 191 196 195 197 199 200 199 199 200 200 199 198 198 196 194 194
192 190 196 190 195 203 211 206 201 207 211 206 204 208 212 209 195 194 206 199 133 120 144 171 160 153 157 150 152 157 149 141 140 121 94 85 103 149 183 197 195 189 184 177 177 182 185 190 196 197 197 200 202 201 202 203 201 199 199 198 197 196 196
214 221 275 248 204 199 205 207 201 202 208 208 206 208 210 206 189 195 215 190 134 135 146 148 145 148 143 133 135 135 131 114 93 88 94 112 134 157 179 187 188 192 189 178 178 183 187 192 196 198 199 201 203 202 203 205 203 200 199 199 198 197 197
251 311 337 330 247 210 209 208 204 202 204 206 210 213 205 196 197 197 204 213 171 145 150 160 159 151 134 124 125 118 114 115 110 114 131 150 152 153 164 179 182 188 192 184 180 183 189 195 197 199 201 203 204 204 203 203 204 203 200 199 198 197 197
240 254 305 312 275 241 234 220 208 202 202 205 208 213 207 198 210 202 185 203 214 153 152 168 157 137 136 143 128 96 93 111 111 101 95 204 175 155 153 168 180 184 189 186 184 187 191 196 197 199 203 204 204 206 205 204 205 205 201 199 199 198 197
234 233 251 283 287 276 263 236 217 206 204 205 206 210 209 203 213 214 180 192 206 184 158 158 142 133 158 155 66 42 58 50 23 22 338 278 260 148 140 159 174 178 186 188 187 190 194 197 199 200 202 203 204 205 205 205 206 206 201 198 198 199 199
234 225 226 254 273 267 261 263 247 221 207 203 204 207 207 204 206 204 171 174 200 202 184 152 102 74 357 354 356 333 335 336 326 305 277 285 313 346 112 160 167 167 179 189 191 194 197 199 201 203 203 203 205 205 205 205 206 206 203 199 198 200 202
235 221 217 228 241 258 265 258 246 227 210 202 203 205 206 205 203 196 183 179 190 189 204 254 302 271 267 282 285 285 293 295 294 296 295 298 303 301 301 301 197 173 179 188 193 200 204 202 202 205 204 204 205 207 206 204 203 204 205 203 200 200 202
232 219 212 218 229 245 251 234 217 215 217 212 208 206 210 213 210 203 198 199 197 190 213 239 246 249 254 262 275 280 282 292 304 302 295 291 292 295 306 303 277 235 203 191 192 203 212 208 208 207 205 205 206 207 207 204 202 203 205 205 201 198 200
221 206 199 214 224 225 223 216 213 217 220 220 218 215 216 217 219 225 222 215 213 212 225 234 234 242 254 267 297 305 298 300 303 297 295 297 299 305 308 294 284 293 318 294 227 246 251 242 237 223 210 208 208 206 205 204 204 204 205 205 202 197 198
218 170 161 208 224 229 226 216 225 232 226 224 229 231 228 223 220 226 231 230 227 226 237 238 223 236 270 288 297 299 304 308 304 297 297 298 291 288 292 309 337 359 355 331 298 286 281 273 269 251 226 214 207 205 206 205 206 204 203 205 202 197 196
244 184 179 205 224 256 231 205 217 251 233 220 222 228 231 229 226 226 227 228 226 222 224 225 237 279 278 281 287 289 294 293 289 286 285 280 281 290 306 337 359 1 339 315 302 293 290 284 272 258 245 227 211 207 206 205 205 204 202 204 204 199 197
250 224 203 197 175 175 199 189 195 233 229 220 224 230 226 224 229 234 229 229 228 214 221 241 273 294 285 282 281 280 281 280 280 289 290 281 283 321 351 350 344 338 324 310 302 290 279 272 266 259 253 241 223 212 207 204 203 203 202 204 205 202 198
230 230 218 209 208 209 199 185 188 209 221 215 221 242 231 215 217 219 215 233 252 259 262 265 283 308 282 275 276 286 308 322 337 347 344 343 357 13 5 346 336 336 335 330 319 302 285 274 267 260 254 248 232 216 209 205 202 202 204 205 205 204 201
218 220 223 219 220 222 207 185 179 186 199 178 175 217 222 196 174 187 219 241 248 254 265 269 259 253 254 254 269 10 12 2 1 2 2 2 4 1 345 333 338 341 337 329 312 292 280 273 265 256 251 247 236 219 211 208 203 203 207 207 205 205 202
219 221 224 222 220 236 353 164 160 156 156 161 183 196 179 112 68 67 252 255 253 276 295 281 243 242 248 257 321 1 350 342 354 2 357 352 348 341 333 338 346 337 320 315 308 301 308 310 291 271 251 240 234 221 211 211 209 207 208 207 205 205 203
222 223 225 223 212 159 85 115 117 117 144 169 190 189 95 32 9 17 359 330 354 4 343 318 275 274 296 307 323 335 328 327 342 346 342 339 333 326 328 340 343 326 312 319 323 321 336 339 309 285 264 242 233 221 212 216 218 213 207 204 203 203 203
221 218 222 226 217 122 37 91 120 124 173 173 175 324 340 327 318 354 356 344 357 359 350 346 329 318 319 316 319 324 322 324 328 325 328 331 324 321 324 331 335 328 325 339 337 330 338 335 309 279 252 236 231 220 213 219 225 220 208 201 202 203 203
223 219 219 221 214 36 18 12 117 91 43 88 4 341 335 332 339 347 340 339 356 355 347 347 336 320 315 314 316 319 319 321 320 318 322 323 317 316 314 317 338 340 333 337 338 336 341 341 336 318 258 219 215 216 211 215 224 225 215 203 201 204 206
216 216 211 215 267 14 6 351 39 40 23 13 354 338 336 345 351 350 342 340 346 346 342 340 332 318 313 315 317 314 313 316 318 318 322 323 322 320 314 325 344 337 326 338 343 345 356 357 351 344 319 204 191 197 188 182 219 223 218 207 199 201 205
268 254 258 330 350 348 343 343 12 15 358 342 341 339 337 341 349 353 346 335 335 339 336 331 326 319 316 319 319 313 310 312 314 315 317 318 319 313 306 320 331 315 312 343 343 346 8 15 10 5 9 112 153 119 95 88 106 207 199 196 193 194 198
294 285 275 278 288 296 313 322 340 347 333 323 331 337 337 341 343 344 342 335 331 333 331 326 325 323 323 322 319 315 314 312 310 309 307 306 311 309 307 322 327 310 315 359 356 351 6 19 31 29 29 56 87 55 54 178 215 191 178 182 184 189 192
276 276 264 258 264 289 320 320 316 309 302 311 328 332 334 341 340 337 338 335 329 327 325 323 321 320 323 324 320 317 316 314 313 311 304 302 307 307 312 332 332 318 330 22 24 21 27 31 40 47 47 54 71 68 165 200 194 184 188 187 185 188 190
248 257 265 276 287 293 298 296 288 285 295 317 330 329 330 333 330 328 333 334 330 325 319 316 314 313 315 318 312 308 309 308 306 302 298 299 299 297 312 335 332 335 1 44 55 56 56 50 48 58 63 59 63 78 80 99 147 156 171 180 181 181 179
250 250 257 270 282 284 279 270 267 280 315 331 326 321 321 321 321 323 327 328 327 324 319 314 310 307 307 310 302 298 305 309 306 305 302 295 286 286 338 13 11 13 25 56 74 68 64 63 64 67 67 63 61 65 69 77 105 126 138 152 162 165 169
248 244 245 253 265 271 272 275 280 298 330 328 317 316 316 315 318 321 322 322 323 321 318 315 306 295 297 301 292 284 291 294 304 316 313 295 269 253 194 85 89 99 95 85 83 81 79 85 87 81 76 74 69 64 65 68 80 104 124 138 147 148 142
252 253 251 250 258 273 287 294 296 302 314 310 304 303 304 306 310 312 314 320 320 315 313 313 304 289 279 278 272 267 267 251 255 321 327 323 4 107 125 122 126 137 138 119 101 94 87 86 89 84 78 75 73 71 69 68 74 91 109 126 136 128 93
266 267 263 260 261 267 275 282 285 288 296 298 295 294 294 296 301 303 304 307 308 304 305 307 300 282 261 249 246 234 218 208 191 147 61 27 38 69 96 98 97 106 112 110 106 99 88 81 82 80 75 69 66 68 72 75 80 81 83 101 115 108 93
258 263 267 271 272 271 273 277 277 278 282 285 284 285 286 288 291 294 294 293 295 297 299 300 295 279 258 242 234 218 192 168 160 153 141 122 97 100 105 97 89 85 84 88 92 92 88 83 75 72 73 71 69 69 70 72 75 69 56 58 72 78 84
Height
654 664 665 656 668 684 685 688 695 688 676 682 701 704 692 696 715 705 691 695 687 677 672 659 657 658 653 657 656 653 657 657 659 665 669 676 675 673 679 684 684 684 687 691 694 698 703 707 711 714 716 720 723 728 733 737 742 746 750 754 757 761 765
654 650 660 658 655 663 678 691 685 674 676 681 693 710 708 712 726 706 684 692 694 695 692 668 662 668 659 655 657 655 656 658 660 661 663 669 669 668 674 679 680 680 682 686 690 694 697 700 705 708 713 717 720 724 728 732 736 740 744 748 752 756 760
655 646 661 670 659 652 662 670 665 672 695 700 698 712 717 720 728 713 693 689 687 691 688 669 666 671 663 656 656 656 656 656 657 657 658 662 662 664 669 674 677 677 678 681 684 688 691 695 700 705 710 715 718 721 724 727 731 734 738 742 746 751 754
652 655 665 675 671 660 657 658 658 666 682 690 694 701 703 709 718 714 705 698 687 674 664 660 662 662 660 659 657 656 652 649 651 651 651 654 659 661 663 668 673 673 673 675 677 682 686 691 698 702 706 711 713 717 720 723 727 730 734 738 741 745 748
653 663 662 660 664 665 667 669 669 670 673 675 682 687 687 694 706 708 706 702 683 654 641 646 652 652 653 654 654 656 650 644 645 646 647 650 655 659 660 663 668 669 668 669 673 679 683 688 694 698 701 704 708 712 715 718 722 725 729 733 736 739 742
658 656 647 643 647 652 661 667 666 667 672 676 690 697 685 683 693 696 699 700 676 644 634 640 642 644 646 646 647 651 649 643 642 643 645 648 653 657 659 661 664 665 665 666 670 675 680 684 688 692 695 699 703 706 709 713 717 719 722 726 729 733 737
651 643 635 637 638 638 648 656 654 656 662 669 688 701 689 683 688 683 686 696 677 646 637 639 639 639 639 640 642 645 645 642 639 640 641 643 648 651 654 656 659 662 664 664 666 672 676 679 682 687 691 693 696 699 703 708 711 713 716 720 723 727 731
639 634 630 632 634 636 647 652 647 650 656 658 667 674 673 682 688 683 693 704 681 649 639 640 641 641 637 637 640 642 644 641 639 640 640 640 644 646 649 651 651 656 661 662 664 668 672 676 679 683 686 689 692 695 699 701 704 707 712 716 720 723 726
656 653 649 647 644 641 645 647 646 647 648 651 658 659 664 680 681 678 695 704 678 652 646 645 643 643 639 638 639 639 641 641 640 640 641 643 646 649 653 653 651 654 658 660 662 665 668 672 675 678 682 685 688 691 694 696 699 704 708 712 715 719 722
671 673 667 657 651 646 644 642 644 647 645 650 660 664 675 686 679 672 683 687 672 657 653 649 645 645 644 640 638 637 638 641 642 643 647 651 652 655 656 655 654 655 656 658 661 662 665 669 672 675 679 682 684 687 690 692 696 700 704 707 710 714 717
661 669 663 645 640 645 648 644 643 646 646 647 654 666 677 680 678 679 674 669 670 668 660 656 651 649 649 644 640 642 642 644 647 650 652 653 654 656 656 655 656 656 656 658 660 662 664 667 670 673 675 678 681 683 686 689 692 695 699 702 705 709 712
656 662 660 647 641 643 645 644 643 645 645 646 653 663 665 664 678 688 672 662 672 671 662 660 655 650 651 648 644 645 647 648 650 652 652 651 652 654 655 656 657 658 659 659 660 662 663 665 668 670 672 675 677 680 683 686 688 691 694 698 701 704 707
658 659 661 655 648 646 643 640 639 640 643 647 652 657 654 656 673 680 667 666 674 666 658 658 652 649 652 649 644 645 648 649 649 651 654 652 649 650 655 657 657 658 660 660 661 662 662 663 666 668 671 673 675 678 680 682 684 686 690 694 697 700 703
661 661 663 659 656 654 649 641 635 635 639 642 646 650 648 652 662 661 658 667 669 657 651 650 646 647 648 646 646 648 651 654 654 655 657 654 648 647 652 656 656 656 658 659 660 661 661 662 664 665 668 670 672 675 677 679 682 683 685 689 692 696 699
669 664 664 663 662 661 656 650 643 636 634 638 643 646 645 651 658 656 659 673 670 652 643 645 647 650 651 653 656 656 656 657 657 658 658 655 652 649 650 652 653 654 656 657 659 660 660 661 662 663 665 667 670 672 673 676 678 680 682 685 688 692 694
682 667 667 668 662 661 664 662 653 643 638 641 642 642 642 648 657 660 669 681 675 656 648 651 654 655 658 661 661 659 658 656 657 659 659 657 656 654 651 651 651 652 654 655 657 658 657 658 659 661 663 665 667 668 669 672 675 678 679 680 684 688 691
688 667 665 667 669 678 680 664 653 650 650 647 645 645 645 647 654 665 675 676 666 656 656 660 660 659 660 660 658 658 658 656 656 658 657 656 655 653 652 652 651 650 649 650 653 653 653 655 656 658 659 661 663 664 667 669 671 674 675 676 680 684 688
685 667 663 671 682 691 678 652 643 650 653 653 654 655 653 650 652 659 663 660 655 655 658 661 661 660 658 657 655 653 653 655 656 655 653 653 652 651 651 651 649 648 647 648 650 650 651 652 652 654 656 658 660 662 664 667 668 669 672 674 677 680 683
679 668 676 695 697 681 659 644 642 644 646 650 656 656 651 649 652 654 657 657 656 656 657 655 657 658 655 655 654 651 650 651 653 653 651 649 649 649 648 648 649 649 649 650 650 649 650 650 650 651 653 654 657 660 661 663 664 667 669 671 673 676 680
683 676 689 703 693 667 650 649 649 648 649 652 658 662 656 649 649 652 655 656 654 654 656 655 656 657 656 656 656 652 650 649 648 650 649 645 644 644 644 646 648 649 649 650 650 650 650 650 650 650 650 651 653 655 657 659 661 664 667 669 671 673 675
689 685 686 685 682 674 666 661 658 657 657 653 657 666 661 648 645 649 653 657 656 656 659 658 657 659 662 666 662 652 647 645 644 644 642 639 639 640 641 644 646 647 648 649 649 650 650 650 649 648 648 648 649 650 653 655 658 661 663 665 667 669 671
689 690 689 685 689 688 674 663 658 655 653 649 653 667 666 651 645 650 656 662 664 663 664 662 661 666 674 678 668 653 647 645 643 644 642 638 638 641 643 645 645 646 648 648 649 650 649 649 648 647 647 647 647 648 650 652 655 657 659 660 663 665 669
693 696 699 694 690 679 662 655 654 652 651 648 657 679 680 659 650 654 659 663 665 665 666 665 668 676 683 680 666 654 652 650 648 649 648 645 645 646 646 647 647 648 649 650 650 649 647 647 646 646 647 647 646 647 648 649 651 653 654 657 660 663 666
700 701 700 689 680 671 660 655 653 652 652 654 672 695 689 666 659 663 663 664 665 665 668 670 673 678 679 672 662 656 654 652 650 651 652 651 650 649 648 649 650 650 651 650 649 647 646 646 646 646 646 646 646 646 647 648 648 649 652 656 659 662 665
704 704 702 689 675 667 662 660 658 657 659 669 689 699 688 674 673 670 667 668 668 668 671 673 673 672 668 663 659 657 655 655 654 654 653 653 652 651 650 651 653 652 650 649 649 648 647 647 647 647 646 646 645 646 647 647 647 648 652 655 658 661 663
702 700 702 696 682 669 664 664 663 663 672 689 699 694 684 680 677 672 670 671 669 669 672 673 672 670 665 662 661 659 658 658 658 657 655 655 655 654 653 653 654 653 651 650 650 650 648 648 647 646 646 646 646 646 647 648 649 650 652 654 657 659 661
704 701 703 704 696 681 671 670 673 677 687 698 697 690 684 681 677 674 674 670 669 671 674 673 674 672 669 667 666 663 662 660 659 658 657 657 657 655 654 653 654 654 653 653 652 651 650 649 648 646 645 645 646 646 646 648 650 651 652 654 656 658 660
705 704 699 700 699 688 678 678 685 690 692 691 690 689 687 684 682 681 679 674 672 673 674 676 677 674 671 669 668 666 664 662 660 659 658 657 658 656 655 655 655 656 655 654 653 653 652 651 650 648 645 645 646 647 647 648 650 651 652 653 655 657 659
704 701 695 696 697 691 684 683 686 689 689 687 687 689 687 685 684 683 682 681 677 674 675 678 678 676 672 669 668 667 665 663 662 661 660 659 659 658 657 656 657 656 655 654 655 654 653 653 652 650 648 647 648 649 649 651 651 651 652 653 655 657 658
706 700 695 695 696 692 689 688 688 690 691 688 687 688 688 687 685 683 683 682 678 675 676 677 678 678 675 672 669 668 666 665 664 663 661 660 659 659 657 657 658 657 655 656 656 655 654 654 653 653 652 651 651 652 653 654 654 654 654 655 656 657 658
714 707 696 692 693 694 695 696 694 693 692 689 688 690 689 688 686 685 685 684 680 677 675 675 676 677 675 675 674 671 669 668 667 665 663 662 660 660 659 659 660 659 657 658 658 657 656 656 654 654 654 654 654 655 655 655 656 656 655 656 657 657 658
714 709 697 691 693 695 697 699 697 694 692 692 691 691 691 690 689 687 685 685 684 681 677 676 676 675 675 677 677 674 671 670 669 667 666 663 661 661 661 661 661 660 659 659 660 659 658 658 657 657 656 656 656 656 656 656 656 656 656 656 656 657 658
711 706 700 698 698 697 695 695 694 692 693 695 695 694 693 692 691 689 687 686 686 685 682 678 676 676 676 675 676 676 674 672 671 670 666 663 662 662 661 662 662 662 661 661 661 661 661 660 659 659 658 658 657 657 656 656 656 656 657 657 656 657 657
714 707 701 700 702 699 693 692 693 693 695 697 697 697 696 695 694 693 690 688 687 686 685 681 679 678 677 675 675 676 675 674 674 672 668 665 663 662 662 663 663 663 663 663 662 663 662 661 660 659 658 658 658 657 657 657 656 657 657 657 657 657 658
707 701 697 697 700 700 696 694 695 695 696 698 698 698 698 697 696 695 693 691 690 688 685 683 680 678 677 676 675 675 674 674 673 672 670 667 665 663 663 663 663 663 664 664 664 663 662 661 659 658 658 658 658 659 659 658 658 658 658 658 658 658 659
703 700 697 695 698 701 699 697 696 695 696 698 698 698 697 697 696 696 695 694 692 690 687 684 681 678 677 675 674 674 674 673 671 672 672 669 667 666 664 663 664 664 663 663 664 664 663 662 661 660 660 660 660 660 660 660 660 660 660 659 659 660 661
704 702 700 699 700 700 699 698 696 695 697 698 697 697 697 696 696 696 695 693 692 690 688 686 682 678 675 673 672 673 672 672 671 671 671 670 669 668 666 665 665 665 665 665 665 665 665 665 664 663 663 663 663 663 663 662 663 663 663 662 662 662 663